Погода в Анисимовке

Россия / Приморский край     43°10′12″N   132°47′22″E
темп.,
°C
ветер,
м/с
пор.,
м/с
влажн.,
%
обл.,
%
осадки,
мм/ч
давл.,
гПа
погр.,
м
13 мая, чт
чт1301:00+6вюв2398100 0.0 1016119
04:00+5юв2298100 0.0 101652
07:00+6юв2397100 0.0 101589
10:00+12ю2366100 0.0 1015774
13:00+16зюз3454100 0.0 10131063
16:00+17з3449100 0.0 10111042
19:00+12зюз236576 0.0 1012275
22:00+8св008265 0.1 101410
14 мая, пт
пт1401:00+8ссз117586 0.0 101510
04:00+7всв11865 0.0 101411
07:00+8св01830 0.0 101513
10:00+18зюз115080 0.0 1015446
13:00+21зюз2232100 0.0 10131906
16:00+20зюз443836 0.0 10121649
19:00+16юз2365100 0.0 1012274
22:00+10ююв1287100 0.0 101432
15 мая, сб
сб1501:00+10вюв1186100 0.1 101445
04:00+10юв239698 0.1 1012103
07:00+11юв1292100 0.0 1011142
10:00+15ю2484100 0.0 1010539
13:00+18ююз3571100 0.0 1009757
16:00+20ю346317 0.0 1007794
19:00+17зюз347790 0.0 1007733
22:00+13сз1298100 0.3 1009165
16 мая, вс
вс1601:00+11ссз2398100 1.7 1009207
04:00+9ссв2295100 1.8 100994
07:00+9св2291100 0.0 101074
10:00+11св1171100 0.0 1010205
13:00+18ссз2338100 0.0 10081577
16:00+17зсз2344100 0.0 10071151
19:00+12з2376100 0.0 1008159
22:00+10в0183100 0.0 100810
17 мая, пн
пн1701:00+8ссв1185100 0.0 100810
04:00+8св1170100 0.0 100711
07:00+10всв1165100 0.0 100623
10:00+19зсз123871 0.0 1005807
13:00+21зсз343039 0.0 10051788
16:00+22зсз35305 0.0 10042033
19:00+18з245596 0.0 1006172
22:00+11зюз1169100 0.0 100911